Time,TemperatureF,DewpointF,PressureIn,WindDirection,WindDirectionDegrees,WindSpeedMPH,WindSpeedGustMPH,Humidity,HourlyPrecipIn,Conditions,Clouds,dailyrainin,SoftwareType,DateUTC
2013-09-21 00:00:00,51.6,42.5,29.78,South,185,0.0,0.0,71,0.00,,,0.00,Wunderground v.1.15,2013-09-21 06:00:00,
2013-09-21 00:10:00,51.3,42.6,29.79,South,185,0.0,0.0,72,0.00,,,0.00,Wunderground v.1.15,2013-09-21 06:10:00,
2013-09-21 00:15:00,51.3,42.9,29.79,South,185,0.0,0.0,73,0.00,,,0.00,Wunderground v.1.15,2013-09-21 06:15:00,
2013-09-21 00:25:00,51.1,43.1,29.79,South,185,0.0,0.0,74,0.00,,,0.00,Wunderground v.1.15,2013-09-21 06:25:00,
2013-09-21 00:30:00,51.0,43.0,29.79,South,185,0.0,0.0,74,0.00,,,0.00,Wunderground v.1.15,2013-09-21 06:30:00,
2013-09-21 00:35:00,51.0,43.4,29.76,South,185,0.0,0.0,75,0.00,,,0.00,Wunderground v.1.15,2013-09-21 06:35:00,
2013-09-21 00:40:00,50.8,43.2,29.76,South,185,0.0,0.0,75,0.00,,,0.00,Wunderground v.1.15,2013-09-21 06:40:00,
2013-09-21 00:50:00,50.5,42.9,29.76,South,185,0.0,0.0,75,0.00,,,0.00,Wunderground v.1.15,2013-09-21 06:50:00,
2013-09-21 00:55:00,50.5,42.9,29.76,South,185,0.0,0.0,75,0.00,,,0.00,Wunderground v.1.15,2013-09-21 06:55:00,
2013-09-21 01:00:00,50.4,42.8,29.76,South,185,0.0,0.0,75,0.00,,,0.00,Wunderground v.1.15,2013-09-21 07:00:00,
2013-09-21 01:05:00,50.2,42.6,29.76,South,185,0.0,0.0,75,0.00,,,0.00,Wunderground v.1.15,2013-09-21 07:05:00,
2013-09-21 01:15:00,50.1,42.8,29.76,South,185,0.0,0.0,76,0.00,,,0.00,Wunderground v.1.15,2013-09-21 07:15:00,
2013-09-21 01:20:00,50.1,42.8,29.76,South,185,0.0,0.0,76,0.00,,,0.00,Wunderground v.1.15,2013-09-21 07:20:00,
2013-09-21 01:25:00,49.9,42.6,29.76,South,185,0.0,0.0,76,0.00,,,0.00,Wunderground v.1.15,2013-09-21 07:25:00,
2013-09-21 01:35:00,49.8,42.9,29.75,South,185,0.0,0.0,77,0.00,,,0.00,Wunderground v.1.15,2013-09-21 07:35:00,
2013-09-21 01:40:00,49.6,42.7,29.75,South,185,0.0,0.0,77,0.00,,,0.00,Wunderground v.1.15,2013-09-21 07:40:00,
2013-09-21 01:45:00,49.5,42.6,29.75,South,185,0.0,0.0,77,0.00,,,0.00,Wunderground v.1.15,2013-09-21 07:45:00,
2013-09-21 01:50:00,49.4,42.5,29.76,South,185,0.0,0.0,77,0.00,,,0.00,Wunderground v.1.15,2013-09-21 07:50:00,
2013-09-21 02:00:00,49.2,42.3,29.76,South,185,0.0,0.0,77,0.00,,,0.00,Wunderground v.1.15,2013-09-21 08:00:00,
2013-09-21 02:05:00,49.1,42.2,29.75,South,185,0.0,0.0,77,0.00,,,0.00,Wunderground v.1.15,2013-09-21 08:05:00,
2013-09-21 02:10:00,49.1,42.5,29.75,South,185,0.0,0.0,78,0.00,,,0.00,Wunderground v.1.15,2013-09-21 08:10:00,
2013-09-21 02:15:00,48.9,42.3,29.75,South,185,0.0,0.0,78,0.00,,,0.00,Wunderground v.1.15,2013-09-21 08:15:00,
2013-09-21 02:20:00,48.9,42.3,29.75,South,185,0.0,0.0,78,0.00,,,0.00,Wunderground v.1.15,2013-09-21 08:20:00,
2013-09-21 02:30:00,48.8,42.6,29.75,South,185,0.0,0.0,79,0.00,,,0.00,Wunderground v.1.15,2013-09-21 08:30:00,
2013-09-21 02:35:00,48.6,42.4,29.74,South,185,0.0,0.0,79,0.00,,,0.00,Wunderground v.1.15,2013-09-21 08:35:00,
2013-09-21 02:40:00,48.6,42.4,29.74,South,185,0.0,0.0,79,0.00,,,0.00,Wunderground v.1.15,2013-09-21 08:40:00,
2013-09-21 02:45:00,48.5,42.3,29.74,South,185,0.0,0.0,79,0.00,,,0.00,Wunderground v.1.15,2013-09-21 08:45:00,
2013-09-21 02:50:00,48.5,42.3,29.74,South,185,0.0,0.0,79,0.00,,,0.00,Wunderground v.1.15,2013-09-21 08:50:00,
2013-09-21 03:00:00,48.3,42.4,29.74,South,185,0.0,0.0,80,0.00,,,0.00,Wunderground v.1.15,2013-09-21 09:00:00,
2013-09-21 03:05:00,48.3,42.4,29.74,South,185,0.0,0.0,80,0.00,,,0.00,Wunderground v.1.15,2013-09-21 09:05:00,
2013-09-21 03:10:00,48.2,42.3,29.74,South,185,0.0,0.0,80,0.00,,,0.00,Wunderground v.1.15,2013-09-21 09:10:00,
2013-09-21 03:20:00,48.2,42.3,29.73,South,185,0.0,0.0,80,0.00,,,0.00,Wunderground v.1.15,2013-09-21 09:20:00,
2013-09-21 03:25:00,48.2,42.3,29.73,South,185,0.0,0.0,80,0.00,,,0.00,Wunderground v.1.15,2013-09-21 09:25:00,
2013-09-21 03:30:00,48.2,42.3,29.73,South,185,0.0,0.0,80,0.00,,,0.00,Wunderground v.1.15,2013-09-21 09:30:00,
2013-09-21 03:35:00,48.0,42.1,29.72,South,185,0.0,0.0,80,0.00,,,0.00,Wunderground v.1.15,2013-09-21 09:35:00,
2013-09-21 03:40:00,48.0,42.1,29.72,South,185,0.0,0.0,80,0.00,,,0.00,Wunderground v.1.15,2013-09-21 09:40:00,
2013-09-21 03:50:00,48.0,42.4,29.71,South,185,0.0,0.0,81,0.00,,,0.00,Wunderground v.1.15,2013-09-21 09:50:00,
2013-09-21 03:55:00,47.9,42.3,29.71,South,185,0.0,0.0,81,0.00,,,0.00,Wunderground v.1.15,2013-09-21 09:55:00,
2013-09-21 04:00:00,47.9,42.3,29.71,South,185,0.0,0.0,81,0.00,,,0.00,Wunderground v.1.15,2013-09-21 10:00:00,
2013-09-21 04:05:00,47.9,42.7,29.71,South,185,0.0,0.0,82,0.00,,,0.00,Wunderground v.1.15,2013-09-21 10:05:00,
2013-09-21 04:10:00,47.7,42.2,29.71,South,185,0.0,0.0,81,0.00,,,0.00,Wunderground v.1.15,2013-09-21 10:10:00,
2013-09-21 04:20:00,47.6,42.1,29.71,South,185,0.0,0.0,81,0.00,,,0.00,Wunderground v.1.15,2013-09-21 10:20:00,
2013-09-21 04:25:00,47.6,42.1,29.71,South,185,0.0,0.0,81,0.00,,,0.00,Wunderground v.1.15,2013-09-21 10:25:00,
2013-09-21 04:30:00,47.6,42.4,29.71,South,185,0.0,0.0,82,0.00,,,0.00,Wunderground v.1.15,2013-09-21 10:30:00,
2013-09-21 04:35:00,47.4,42.2,29.71,South,185,0.0,0.0,82,0.00,,,0.00,Wunderground v.1.15,2013-09-21 10:35:00,
2013-09-21 04:45:00,47.3,42.1,29.71,South,185,0.0,0.0,82,0.00,,,0.00,Wunderground v.1.15,2013-09-21 10:45:00,
2013-09-21 04:50:00,47.1,41.9,29.71,South,185,0.0,0.0,82,0.00,,,0.00,Wunderground v.1.15,2013-09-21 10:50:00,
2013-09-21 04:55:00,47.1,41.9,29.71,South,185,0.0,0.0,82,0.00,,,0.00,Wunderground v.1.15,2013-09-21 10:55:00,
2013-09-21 05:00:00,47.1,42.2,29.71,South,185,0.0,0.0,83,0.00,,,0.00,Wunderground v.1.15,2013-09-21 11:00:00,
2013-09-21 05:10:00,47.1,42.2,29.71,South,185,0.0,0.0,83,0.00,,,0.00,Wunderground v.1.15,2013-09-21 11:10:00,
2013-09-21 05:15:00,47.1,42.2,29.71,South,185,0.0,0.0,83,0.00,,,0.00,Wunderground v.1.15,2013-09-21 11:15:00,
2013-09-21 05:20:00,47.0,42.1,29.71,South,185,0.0,0.0,83,0.00,,,0.00,Wunderground v.1.15,2013-09-21 11:20:00,
2013-09-21 05:25:00,47.0,42.1,29.71,South,185,0.0,0.0,83,0.00,,,0.00,Wunderground v.1.15,2013-09-21 11:25:00,
2013-09-21 05:30:00,47.0,42.1,29.71,South,185,0.0,0.0,83,0.00,,,0.00,Wunderground v.1.15,2013-09-21 11:30:00,
2013-09-21 05:40:00,47.0,42.1,29.71,South,185,0.0,0.0,83,0.00,,,0.00,Wunderground v.1.15,2013-09-21 11:40:00,
2013-09-21 05:45:00,47.0,42.1,29.71,South,185,0.0,0.0,83,0.00,,,0.00,Wunderground v.1.15,2013-09-21 11:45:00,
2013-09-21 05:50:00,47.0,42.1,29.71,South,185,0.0,0.0,83,0.00,,,0.00,Wunderground v.1.15,2013-09-21 11:50:00,
2013-09-21 05:55:00,47.3,42.7,29.71,South,185,0.0,0.0,84,0.00,,,0.00,Wunderground v.1.15,2013-09-21 11:55:00,
2013-09-21 06:05:00,47.3,42.4,29.72,South,185,0.0,0.0,83,0.00,,,0.00,Wunderground v.1.15,2013-09-21 12:05:00,
2013-09-21 06:10:00,47.1,42.2,29.72,South,185,0.0,0.0,83,0.00,,,0.00,Wunderground v.1.15,2013-09-21 12:10:00,
2013-09-21 06:15:00,47.0,42.1,29.72,South,185,0.0,0.0,83,0.00,,,0.00,Wunderground v.1.15,2013-09-21 12:15:00,
2013-09-21 06:20:00,47.0,42.4,29.71,South,185,0.0,0.0,84,0.00,,,0.00,Wunderground v.1.15,2013-09-21 12:20:00,
2013-09-21 06:25:00,47.1,42.8,29.71,South,185,0.0,0.0,85,0.00,,,0.00,Wunderground v.1.15,2013-09-21 12:25:00,
2013-09-21 06:35:00,47.7,43.1,29.75,South,185,0.0,0.0,84,0.00,,,0.00,Wunderground v.1.15,2013-09-21 12:35:00,
2013-09-21 06:40:00,47.7,43.1,29.75,South,185,0.0,0.0,84,0.00,,,0.00,Wunderground v.1.15,2013-09-21 12:40:00,
2013-09-21 06:45:00,47.7,43.1,29.75,South,185,0.0,0.0,84,0.00,,,0.00,Wunderground v.1.15,2013-09-21 12:45:00,
2013-09-21 06:50:00,47.7,43.1,29.75,South,185,0.0,0.0,84,0.00,,,0.00,Wunderground v.1.15,2013-09-21 12:50:00,
2013-09-21 07:00:00,47.7,43.1,29.75,South,185,0.0,0.0,84,0.00,,,0.00,Wunderground v.1.15,2013-09-21 13:00:00,
2013-09-21 07:05:00,47.7,43.1,29.76,South,185,0.0,0.0,84,0.00,,,0.00,Wunderground v.1.15,2013-09-21 13:05:00,
2013-09-21 07:10:00,47.7,43.1,29.76,South,185,0.0,0.0,84,0.00,,,0.00,Wunderground v.1.15,2013-09-21 13:10:00,
2013-09-21 07:15:00,47.7,42.8,29.76,South,185,0.0,0.0,83,0.00,,,0.00,Wunderground v.1.15,2013-09-21 13:15:00,
2013-09-21 07:25:00,47.4,42.8,29.76,South,185,0.0,0.0,84,0.00,,,0.00,Wunderground v.1.15,2013-09-21 13:25:00,
2013-09-21 07:30:00,47.4,42.8,29.76,South,185,0.0,0.0,84,0.00,,,0.00,Wunderground v.1.15,2013-09-21 13:30:00,
2013-09-21 07:35:00,47.3,42.7,29.78,South,185,0.0,0.0,84,0.00,,,0.00,Wunderground v.1.15,2013-09-21 13:35:00,
2013-09-21 07:40:00,47.4,42.8,29.78,South,185,0.0,0.0,84,0.00,,,0.00,Wunderground v.1.15,2013-09-21 13:40:00,
2013-09-21 07:45:00,47.7,43.4,29.78,South,185,0.0,0.0,85,0.00,,,0.00,Wunderground v.1.15,2013-09-21 13:45:00,
2013-09-21 07:55:00,48.5,44.2,29.77,South,185,0.0,0.0,85,0.00,,,0.00,Wunderground v.1.15,2013-09-21 13:55:00,
2013-09-21 08:00:00,49.1,44.8,29.77,South,185,0.0,0.0,85,0.00,,,0.00,Wunderground v.1.15,2013-09-21 14:00:00,
2013-09-21 08:05:00,49.6,45.3,29.75,South,185,0.0,0.0,85,0.00,,,0.00,Wunderground v.1.15,2013-09-21 14:05:00,
2013-09-21 08:10:00,50.2,46.2,29.75,South,185,0.0,0.0,86,0.00,,,0.00,Wunderground v.1.15,2013-09-21 14:10:00,
2013-09-21 08:20:00,52.0,47.6,29.74,South,185,0.0,0.0,85,0.00,,,0.00,Wunderground v.1.15,2013-09-21 14:20:00,
2013-09-21 08:25:00,53.1,48.7,29.74,South,185,0.0,0.0,85,0.00,,,0.00,Wunderground v.1.15,2013-09-21 14:25:00,
2013-09-21 08:30:00,53.9,48.2,29.74,South,185,0.0,0.0,81,0.00,,,0.00,Wunderground v.1.15,2013-09-21 14:30:00,
2013-09-21 08:40:00,55.9,48.1,29.75,South,185,0.0,0.0,75,0.00,,,0.00,Wunderground v.1.15,2013-09-21 14:40:00,
2013-09-21 08:45:00,56.7,46.6,29.75,South,185,0.0,0.0,69,0.00,,,0.00,Wunderground v.1.15,2013-09-21 14:45:00,
2013-09-21 08:50:00,57.6,47.5,29.74,South,185,0.0,0.0,69,0.00,,,0.00,Wunderground v.1.15,2013-09-21 14:50:00,
2013-09-21 09:00:00,59.8,46.7,29.74,South,185,0.0,0.0,62,0.00,,,0.00,Wunderground v.1.15,2013-09-21 15:00:00,
2013-09-21 09:05:00,61.0,47.9,29.72,South,185,0.0,0.0,62,0.00,,,0.00,Wunderground v.1.15,2013-09-21 15:05:00,
2013-09-21 09:10:00,62.1,47.1,29.72,South,185,0.0,0.0,58,0.00,,,0.00,Wunderground v.1.15,2013-09-21 15:10:00,
2013-09-21 09:15:00,62.9,45.0,29.72,South,185,0.0,0.0,52,0.00,,,0.00,Wunderground v.1.15,2013-09-21 15:15:00,
2013-09-21 09:25:00,64.5,44.9,29.69,South,185,0.0,0.0,49,0.00,,,0.00,Wunderground v.1.15,2013-09-21 15:25:00,
2013-09-21 09:30:00,65.3,46.2,29.69,South,185,0.0,0.0,50,0.00,,,0.00,Wunderground v.1.15,2013-09-21 15:30:00,
2013-09-21 09:35:00,66.4,49.2,29.70,South,185,0.0,0.0,54,0.00,,,0.00,Wunderground v.1.15,2013-09-21 15:35:00,
2013-09-21 09:40:00,67.6,47.8,29.70,South,185,0.0,0.0,49,0.00,,,0.00,Wunderground v.1.15,2013-09-21 15:40:00,
2013-09-21 09:45:00,68.6,47.6,29.70,South,185,0.0,0.0,47,0.00,,,0.00,Wunderground v.1.15,2013-09-21 15:45:00,
2013-09-21 09:55:00,70.4,49.2,29.68,South,185,0.0,0.0,47,0.00,,,0.00,Wunderground v.1.15,2013-09-21 15:55:00,
2013-09-21 10:00:00,71.5,49.0,29.68,South,185,0.0,0.0,45,0.00,,,0.00,Wunderground v.1.15,2013-09-21 16:00:00,
2013-09-21 10:05:00,72.1,45.8,29.67,South,185,0.0,0.0,39,0.00,,,0.00,Wunderground v.1.15,2013-09-21 16:05:00,
2013-09-21 10:10:00,72.8,45.7,29.67,South,185,0.0,0.0,38,0.00,,,0.00,Wunderground v.1.15,2013-09-21 16:10:00,
2013-09-21 10:15:00,73.3,44.7,29.67,South,185,0.0,0.0,36,0.00,,,0.00,Wunderground v.1.15,2013-09-21 16:15:00,
2013-09-21 10:25:00,74.2,42.4,29.65,South,185,0.0,1.0,32,0.00,,,0.00,Wunderground v.1.15,2013-09-21 16:25:00,
2013-09-21 10:30:00,74.7,43.7,29.65,ENE,72,0.0,0.0,33,0.00,,,0.00,Wunderground v.1.15,2013-09-21 16:30:00,
2013-09-21 10:35:00,74.9,43.8,29.65,ENE,72,0.0,0.0,33,0.00,,,0.00,Wunderground v.1.15,2013-09-21 16:35:00,
2013-09-21 10:40:00,75.1,43.2,29.65,ENE,72,0.0,0.0,32,0.00,,,0.00,Wunderground v.1.15,2013-09-21 16:40:00,
2013-09-21 10:45:00,75.8,45.4,29.65,ENE,72,0.0,0.0,34,0.00,,,0.00,Wunderground v.1.15,2013-09-21 16:45:00,
2013-09-21 10:55:00,76.8,44.7,29.65,ENE,72,0.0,1.0,32,0.00,,,0.00,Wunderground v.1.15,2013-09-21 16:55:00,
2013-09-21 11:00:00,77.2,41.6,29.65,ENE,72,0.0,0.0,28,0.00,,,0.00,Wunderground v.1.15,2013-09-21 17:00:00,
2013-09-21 11:05:00,77.7,42.0,29.63,ENE,71,0.0,0.0,28,0.00,,,0.00,Wunderground v.1.15,2013-09-21 17:05:00,
2013-09-21 11:10:00,78.3,42.5,29.63,NNE,31,0.0,0.0,28,0.00,,,0.00,Wunderground v.1.15,2013-09-21 17:10:00,
2013-09-21 11:20:00,79.6,42.7,29.62,ENE,66,0.0,1.0,27,0.00,,,0.00,Wunderground v.1.15,2013-09-21 17:20:00,
2013-09-21 11:25:00,79.9,42.9,29.62,East,99,0.0,1.0,27,0.00,,,0.00,Wunderground v.1.15,2013-09-21 17:25:00,
2013-09-21 11:30:00,80.5,43.4,29.62,NE,34,0.0,0.0,27,0.00,,,0.00,Wunderground v.1.15,2013-09-21 17:30:00,
2013-09-21 11:35:00,81.1,43.0,29.61,NE,40,0.0,0.0,26,0.00,,,0.00,Wunderground v.1.15,2013-09-21 17:35:00,
2013-09-21 11:45:00,82.0,42.7,29.61,NE,47,0.0,1.0,25,0.00,,,0.00,Wunderground v.1.15,2013-09-21 17:45:00,
2013-09-21 11:50:00,82.4,39.7,29.61,NNE,13,0.0,0.0,22,0.00,,,0.00,Wunderground v.1.15,2013-09-21 17:50:00,
2013-09-21 11:55:00,82.6,39.9,29.61,NE,44,0.0,1.0,22,0.00,,,0.00,Wunderground v.1.15,2013-09-21 17:55:00,
2013-09-21 12:00:00,83.0,43.5,29.61,NNE,32,0.0,0.0,25,0.00,,,0.00,Wunderground v.1.15,2013-09-21 18:00:00,
2013-09-21 12:05:00,83.4,41.7,29.59,NNE,32,0.0,0.0,23,0.00,,,0.00,Wunderground v.1.15,2013-09-21 18:05:00,
2013-09-21 12:15:00,84.0,39.9,29.59,ENE,64,0.0,0.0,21,0.00,,,0.00,Wunderground v.1.15,2013-09-21 18:15:00,
2013-09-21 12:20:00,84.3,40.1,29.58,ENE,64,0.0,0.0,21,0.00,,,0.00,Wunderground v.1.15,2013-09-21 18:20:00,
2013-09-21 12:25:00,84.7,37.9,29.58,ENE,62,0.0,0.0,19,0.00,,,0.00,Wunderground v.1.15,2013-09-21 18:25:00,
2013-09-21 12:30:00,85.1,38.2,29.58,North,0,0.0,0.0,19,0.00,,,0.00,Wunderground v.1.15,2013-09-21 18:30:00,
2013-09-21 12:40:00,85.7,37.3,29.58,North,0,0.0,0.0,18,0.00,,,0.00,Wunderground v.1.15,2013-09-21 18:40:00,
2013-09-21 12:45:00,85.9,38.8,29.58,NNE,24,0.0,0.0,19,0.00,,,0.00,Wunderground v.1.15,2013-09-21 18:45:00,
2013-09-21 12:50:00,85.7,37.3,29.57,NNE,24,0.0,0.0,18,0.00,,,0.00,Wunderground v.1.15,2013-09-21 18:50:00,
2013-09-21 12:55:00,85.7,37.3,29.57,ENE,71,0.0,0.0,18,0.00,,,0.00,Wunderground v.1.15,2013-09-21 18:55:00,
2013-09-21 13:00:00,85.9,38.8,29.57,ENE,71,0.0,0.0,19,0.00,,,0.00,Wunderground v.1.15,2013-09-21 19:00:00,
2013-09-21 13:10:00,85.7,37.3,29.57,NNE,14,0.0,0.0,18,0.00,,,0.00,Wunderground v.1.15,2013-09-21 19:10:00,
2013-09-21 13:20:00,85.3,37.0,29.57,NNE,25,0.0,0.0,18,0.00,,,0.00,Wunderground v.1.15,2013-09-21 19:20:00,
2013-09-21 13:25:00,85.1,36.8,29.57,NNE,25,0.0,0.0,18,0.00,,,0.00,Wunderground v.1.15,2013-09-21 19:25:00,
2013-09-21 13:30:00,84.9,39.3,29.57,NNE,25,0.0,0.0,20,0.00,,,0.00,Wunderground v.1.15,2013-09-21 19:30:00,
2013-09-21 13:35:00,84.5,36.3,29.56,NNE,25,0.0,0.0,18,0.00,,,0.00,Wunderground v.1.15,2013-09-21 19:35:00,
2013-09-21 13:45:00,83.8,37.1,29.56,NNE,25,0.0,0.0,19,0.00,,,0.00,Wunderground v.1.15,2013-09-21 19:45:00,
2013-09-21 13:50:00,83.4,36.8,29.56,NNW,346,0.0,0.0,19,0.00,,,0.00,Wunderground v.1.15,2013-09-21 19:50:00,
2013-09-21 13:55:00,82.6,36.1,29.56,NW,313,0.0,0.0,19,0.00,,,0.00,Wunderground v.1.15,2013-09-21 19:55:00,
2013-09-21 14:05:00,82.0,37.0,29.57,NNW,329,0.0,0.0,20,0.00,,,0.00,Wunderground v.1.15,2013-09-21 20:05:00,
2013-09-21 14:10:00,81.8,35.5,29.57,NNW,329,0.0,1.0,19,0.00,,,0.00,Wunderground v.1.15,2013-09-21 20:10:00,
2013-09-21 14:15:00,81.8,36.8,29.57,NNW,329,0.0,1.0,20,0.00,,,0.00,Wunderground v.1.15,2013-09-21 20:15:00,
2013-09-21 14:20:00,81.6,36.6,29.56,NNE,13,0.0,1.0,20,0.00,,,0.00,Wunderground v.1.15,2013-09-21 20:20:00,
2013-09-21 14:30:00,81.4,36.5,29.56,NNE,14,0.0,1.0,20,0.00,,,0.00,Wunderground v.1.15,2013-09-21 20:30:00,
2013-09-21 14:35:00,81.2,36.3,29.57,NE,48,0.0,1.0,20,0.00,,,0.00,Wunderground v.1.15,2013-09-21 20:35:00,
2013-09-21 14:40:00,81.2,35.0,29.57,NE,52,0.0,0.0,19,0.00,,,0.00,Wunderground v.1.15,2013-09-21 20:40:00,
2013-09-21 14:50:00,81.2,36.3,29.56,NE,56,0.0,0.0,20,0.00,,,0.00,Wunderground v.1.15,2013-09-21 20:50:00,
2013-09-21 14:55:00,81.1,36.2,29.56,North,6,0.0,0.0,20,0.00,,,0.00,Wunderground v.1.15,2013-09-21 20:55:00,
2013-09-21 15:00:00,81.1,36.2,29.56,NE,45,0.0,0.0,20,0.00,,,0.00,Wunderground v.1.15,2013-09-21 21:00:00,
2013-09-21 15:05:00,81.1,36.2,29.56,NE,44,0.0,0.0,20,0.00,,,0.00,Wunderground v.1.15,2013-09-21 21:05:00,
2013-09-21 15:10:00,81.1,34.9,29.56,NNW,343,0.0,5.0,19,0.00,,,0.00,Wunderground v.1.15,2013-09-21 21:10:00,
2013-09-21 15:20:00,81.1,37.5,29.55,NE,48,0.0,0.0,21,0.00,,,0.00,Wunderground v.1.15,2013-09-21 21:20:00,
2013-09-21 15:25:00,81.1,36.2,29.55,North,3,0.0,0.0,20,0.00,,,0.00,Wunderground v.1.15,2013-09-21 21:25:00,
2013-09-21 15:30:00,81.1,36.2,29.55,North,3,0.0,0.0,20,0.00,,,0.00,Wunderground v.1.15,2013-09-21 21:30:00,
2013-09-21 15:35:00,81.1,34.9,29.54,North,357,0.0,1.0,19,0.00,,,0.00,Wunderground v.1.15,2013-09-21 21:35:00,
2013-09-21 15:45:00,81.1,34.9,29.54,ENE,78,0.0,0.0,19,0.00,,,0.00,Wunderground v.1.15,2013-09-21 21:45:00,
2013-09-21 15:50:00,81.2,35.0,29.54,NE,52,0.0,0.0,19,0.00,,,0.00,Wunderground v.1.15,2013-09-21 21:50:00,
2013-09-21 15:55:00,81.2,36.3,29.54,ESE,116,0.0,0.0,20,0.00,,,0.00,Wunderground v.1.15,2013-09-21 21:55:00,
2013-09-21 16:00:00,81.2,35.0,29.54,NNE,32,0.0,0.0,19,0.00,,,0.00,Wunderground v.1.15,2013-09-21 22:00:00,
2013-09-21 16:10:00,81.2,36.3,29.53,NNE,27,0.0,0.0,20,0.00,,,0.00,Wunderground v.1.15,2013-09-21 22:10:00,
2013-09-21 16:15:00,81.2,35.0,29.53,NNE,27,0.0,0.0,19,0.00,,,0.00,Wunderground v.1.15,2013-09-21 22:15:00,
2013-09-21 16:20:00,81.1,33.6,29.53,NNE,27,0.0,0.0,18,0.00,,,0.00,Wunderground v.1.15,2013-09-21 22:20:00,
2013-09-21 16:30:00,81.1,36.2,29.53,NNE,27,0.0,1.0,20,0.00,,,0.00,Wunderground v.1.15,2013-09-21 22:30:00,
2013-09-21 16:35:00,80.9,36.1,29.52,NNE,27,0.0,1.0,20,0.00,,,0.00,Wunderground v.1.15,2013-09-21 22:35:00,
2013-09-21 16:40:00,80.7,34.6,29.52,NNE,27,0.0,0.0,19,0.00,,,0.00,Wunderground v.1.15,2013-09-21 22:40:00,
2013-09-21 16:45:00,80.7,34.6,29.52,NNE,27,0.0,0.0,19,0.00,,,0.00,Wunderground v.1.15,2013-09-21 22:45:00,
2013-09-21 16:50:00,80.7,34.6,29.52,North,4,0.0,0.0,19,0.00,,,0.00,Wunderground v.1.15,2013-09-21 22:50:00,
2013-09-21 17:00:00,80.9,36.1,29.52,ESE,121,0.0,0.0,20,0.00,,,0.00,Wunderground v.1.15,2013-09-21 23:00:00,
2013-09-21 17:05:00,81.1,34.9,29.52,ESE,121,0.0,1.0,19,0.00,,,0.00,Wunderground v.1.15,2013-09-21 23:05:00,
2013-09-21 17:10:00,81.1,36.2,29.52,NNE,28,0.0,0.0,20,0.00,,,0.00,Wunderground v.1.15,2013-09-21 23:10:00,
2013-09-21 17:15:00,81.1,37.5,29.52,North,0,0.0,0.0,21,0.00,,,0.00,Wunderground v.1.15,2013-09-21 23:15:00,
2013-09-21 17:25:00,80.5,39.3,29.51,North,0,0.0,0.0,23,0.00,,,0.00,Wunderground v.1.15,2013-09-21 23:25:00,
2013-09-21 17:30:00,80.3,39.1,29.51,North,10,0.0,0.0,23,0.00,,,0.00,Wunderground v.1.15,2013-09-21 23:30:00,
2013-09-21 17:35:00,80.1,40.0,29.52,North,10,0.0,0.0,24,0.00,,,0.00,Wunderground v.1.15,2013-09-21 23:35:00,
2013-09-21 17:40:00,79.9,38.8,29.52,North,11,0.0,0.0,23,0.00,,,0.00,Wunderground v.1.15,2013-09-21 23:40:00,
2013-09-21 17:50:00,79.8,38.7,29.51,NNE,17,0.0,0.0,23,0.00,,,0.00,Wunderground v.1.15,2013-09-21 23:50:00,
2013-09-21 17:55:00,79.8,39.8,29.51,NNE,17,0.0,1.0,24,0.00,,,0.00,Wunderground v.1.15,2013-09-21 23:55:00,
2013-09-21 18:00:00,79.8,38.7,29.51,NNE,18,0.0,0.0,23,0.00,,,0.00,Wunderground v.1.15,2013-09-22 00:00:00,
2013-09-21 18:05:00,79.8,39.8,29.51,NNE,18,0.0,0.0,24,0.00,,,0.00,Wunderground v.1.15,2013-09-22 00:05:00,
2013-09-21 18:10:00,79.6,39.6,29.51,NNE,23,0.0,0.0,24,0.00,,,0.00,Wunderground v.1.15,2013-09-22 00:10:00,
2013-09-21 18:20:00,79.2,38.2,29.51,NNE,23,0.0,0.0,23,0.00,,,0.00,Wunderground v.1.15,2013-09-22 00:20:00,
2013-09-21 18:25:00,78.8,38.9,29.51,NNE,23,0.0,0.0,24,0.00,,,0.00,Wunderground v.1.15,2013-09-22 00:25:00,
2013-09-21 18:30:00,78.5,37.6,29.51,NNE,23,0.0,0.0,23,0.00,,,0.00,Wunderground v.1.15,2013-09-22 00:30:00,
2013-09-21 18:35:00,78.1,38.4,29.51,NNE,23,0.0,0.0,24,0.00,,,0.00,Wunderground v.1.15,2013-09-22 00:35:00,
2013-09-21 18:45:00,77.6,37.9,29.51,NNE,23,0.0,0.0,24,0.00,,,0.00,Wunderground v.1.15,2013-09-22 00:45:00,
2013-09-21 18:50:00,77.2,37.6,29.51,NNE,23,0.0,0.0,24,0.00,,,0.00,Wunderground v.1.15,2013-09-22 00:50:00,
2013-09-21 18:55:00,76.8,37.3,29.51,NNE,23,0.0,0.0,24,0.00,,,0.00,Wunderground v.1.15,2013-09-22 00:55:00,
2013-09-21 19:00:00,76.5,37.0,29.51,NNE,23,0.0,0.0,24,0.00,,,0.00,Wunderground v.1.15,2013-09-22 01:00:00,
2013-09-21 19:05:00,76.1,36.7,29.51,NNE,23,0.0,0.0,24,0.00,,,0.00,Wunderground v.1.15,2013-09-22 01:05:00,
2013-09-21 19:15:00,75.4,37.1,29.51,NNE,23,0.0,0.0,25,0.00,,,0.00,Wunderground v.1.15,2013-09-22 01:15:00,
2013-09-21 19:20:00,74.9,36.7,29.52,NNE,23,0.0,0.0,25,0.00,,,0.00,Wunderground v.1.15,2013-09-22 01:20:00,
2013-09-21 19:25:00,74.6,37.4,29.52,NNE,23,0.0,0.0,26,0.00,,,0.00,Wunderground v.1.15,2013-09-22 01:25:00,
2013-09-21 19:30:00,74.4,37.3,29.52,NNE,30,0.0,0.0,26,0.00,,,0.00,Wunderground v.1.15,2013-09-22 01:30:00,
2013-09-21 19:40:00,74.0,36.9,29.49,NNE,18,0.0,0.0,26,0.00,,,0.00,Wunderground v.1.15,2013-09-22 01:40:00,
2013-09-21 19:45:00,73.7,36.7,29.49,SSE,165,0.0,2.0,26,0.00,,,0.00,Wunderground v.1.15,2013-09-22 01:45:00,
2013-09-21 19:50:00,73.7,36.7,29.49,WSW,250,0.0,0.0,26,0.00,,,0.00,Wunderground v.1.15,2013-09-22 01:50:00,
2013-09-21 19:55:00,73.5,36.5,29.49,NE,38,0.0,0.0,26,0.00,,,0.00,Wunderground v.1.15,2013-09-22 01:55:00,
2013-09-21 20:05:00,73.3,37.3,29.51,NE,49,0.0,0.0,27,0.00,,,0.00,Wunderground v.1.15,2013-09-22 02:05:00,
2013-09-21 20:10:00,73.0,38.0,29.51,North,357,0.0,0.0,28,0.00,,,0.00,Wunderground v.1.15,2013-09-22 02:10:00,
2013-09-21 20:15:00,72.8,37.8,29.51,NNE,31,0.0,0.0,28,0.00,,,0.00,Wunderground v.1.15,2013-09-22 02:15:00,
2013-09-21 20:20:00,72.7,38.6,29.51,NNE,31,0.0,0.0,29,0.00,,,0.00,Wunderground v.1.15,2013-09-22 02:20:00,
2013-09-21 20:25:00,72.3,38.2,29.51,NE,51,0.0,1.0,29,0.00,,,0.00,Wunderground v.1.15,2013-09-22 02:25:00,
2013-09-21 20:35:00,71.6,40.2,29.45,NE,51,0.0,0.0,32,0.00,,,0.00,Wunderground v.1.15,2013-09-22 02:35:00,
2013-09-21 20:40:00,71.3,40.7,29.45,NE,42,0.0,0.0,33,0.00,,,0.00,Wunderground v.1.15,2013-09-22 02:40:00,
2013-09-21 20:45:00,71.1,40.5,29.45,NE,42,0.0,0.0,33,0.00,,,0.00,Wunderground v.1.15,2013-09-22 02:45:00,
2013-09-21 20:50:00,70.6,40.9,29.45,NE,42,0.0,0.0,34,0.00,,,0.00,Wunderground v.1.15,2013-09-22 02:50:00,
2013-09-21 21:00:00,69.9,41.7,29.45,NE,42,0.0,0.0,36,0.00,,,0.00,Wunderground v.1.15,2013-09-22 03:00:00,
2013-09-21 21:05:00,69.6,42.9,29.46,NE,42,0.0,0.0,38,0.00,,,0.00,Wunderground v.1.15,2013-09-22 03:05:00,
2013-09-21 21:10:00,69.3,42.6,29.46,NE,42,0.0,0.0,38,0.00,,,0.00,Wunderground v.1.15,2013-09-22 03:10:00,
2013-09-21 21:15:00,68.6,42.0,29.46,NE,42,0.0,0.0,38,0.00,,,0.00,Wunderground v.1.15,2013-09-22 03:15:00,
2013-09-21 21:25:00,67.3,43.4,29.47,NE,42,0.0,0.0,42,0.00,,,0.00,Wunderground v.1.15,2013-09-22 03:25:00,
2013-09-21 21:30:00,66.4,43.8,29.47,NE,42,0.0,0.0,44,0.00,,,0.00,Wunderground v.1.15,2013-09-22 03:30:00,
2013-09-21 21:35:00,65.8,43.9,29.43,NE,42,0.0,0.0,45,0.00,,,0.00,Wunderground v.1.15,2013-09-22 03:35:00,
2013-09-21 21:40:00,65.2,43.3,29.43,NE,42,0.0,0.0,45,0.00,,,0.00,Wunderground v.1.15,2013-09-22 03:40:00,
2013-09-21 21:50:00,64.5,42.7,29.45,NE,42,0.0,0.0,45,0.00,,,0.00,Wunderground v.1.15,2013-09-22 03:50:00,
2013-09-21 21:55:00,64.2,42.4,29.45,NE,42,0.0,0.0,45,0.00,,,0.00,Wunderground v.1.15,2013-09-22 03:55:00,
2013-09-21 22:00:00,64.0,42.2,29.45,NE,42,0.0,0.0,45,0.00,,,0.00,Wunderground v.1.15,2013-09-22 04:00:00,
2013-09-21 22:05:00,63.7,41.9,29.44,NE,42,0.0,0.0,45,0.00,,,0.00,Wunderground v.1.15,2013-09-22 04:05:00,
2013-09-21 22:10:00,63.5,41.8,29.44,NE,42,0.0,0.0,45,0.00,,,0.00,Wunderground v.1.15,2013-09-22 04:10:00,
2013-09-21 22:15:00,63.2,42.6,29.44,NE,42,0.0,0.0,47,0.00,,,0.00,Wunderground v.1.15,2013-09-22 04:15:00,
2013-09-21 22:20:00,62.9,42.4,29.46,NE,42,0.0,0.0,47,0.00,,,0.00,Wunderground v.1.15,2013-09-22 04:20:00,
2013-09-21 22:25:00,62.6,42.1,29.46,NE,42,0.0,0.0,47,0.00,,,0.00,Wunderground v.1.15,2013-09-22 04:25:00,
2013-09-21 22:30:00,62.3,41.8,29.46,NE,42,0.0,0.0,47,0.00,,,0.00,Wunderground v.1.15,2013-09-22 04:30:00,
2013-09-21 22:40:00,61.8,42.4,29.42,NE,42,0.0,0.0,49,0.00,,,0.00,Wunderground v.1.15,2013-09-22 04:40:00,
2013-09-21 22:45:00,61.6,42.2,29.42,NE,42,0.0,0.0,49,0.00,,,0.00,Wunderground v.1.15,2013-09-22 04:45:00,
2013-09-21 22:50:00,61.3,42.5,29.42,NE,42,0.0,0.0,50,0.00,,,0.00,Wunderground v.1.15,2013-09-22 04:50:00,
2013-09-21 22:55:00,61.2,42.4,29.42,NE,42,0.0,0.0,50,0.00,,,0.00,Wunderground v.1.15,2013-09-22 04:55:00,
2013-09-21 23:05:00,60.5,42.8,29.43,NE,42,0.0,0.0,52,0.00,,,0.00,Wunderground v.1.15,2013-09-22 05:05:00,
2013-09-21 23:10:00,60.2,43.0,29.43,NE,42,0.0,0.0,53,0.00,,,0.00,Wunderground v.1.15,2013-09-22 05:10:00,
2013-09-21 23:15:00,59.9,42.7,29.43,NE,42,0.0,0.0,53,0.00,,,0.00,Wunderground v.1.15,2013-09-22 05:15:00,
2013-09-21 23:20:00,59.5,42.3,29.43,NE,42,0.0,0.0,53,0.00,,,0.00,Wunderground v.1.15,2013-09-22 05:20:00,
2013-09-21 23:30:00,58.9,43.2,29.43,NE,42,0.0,0.0,56,0.00,,,0.00,Wunderground v.1.15,2013-09-22 05:30:00,
2013-09-21 23:35:00,58.6,43.4,29.42,NE,42,0.0,0.0,57,0.00,,,0.00,Wunderground v.1.15,2013-09-22 05:35:00,
2013-09-21 23:40:00,58.1,42.9,29.42,NE,42,0.0,0.0,57,0.00,,,0.00,Wunderground v.1.15,2013-09-22 05:40:00,
2013-09-21 23:50:00,57.5,42.8,29.42,NE,42,0.0,0.0,58,0.00,,,0.00,Wunderground v.1.15,2013-09-22 05:50:00,
2013-09-21 23:55:00,57.0,42.8,29.42,NE,42,0.0,0.0,59,0.00,,,0.00,Wunderground v.1.15,2013-09-22 05:55:00,